Location: Berlin
(52.5170°N, 13.3889°E)
Time: 22:39:10
(UTC+02:00)

LES 1 - Pass Details

Date: 18 June 2025
Orbit: 2779 x 2808 km, 32.1° (Epoch: 12 July)

Event Time Altitude Azimuth Distance (km) Brightness Sun altitude
Rises 23:02:21 0° 222° (SW) 6,566 12.1 -9.3°
Reaches altitude 10° 23:07:24 10° 211° (SSW) 5,547 11.6 -9.7°
Maximum altitude 23:19:46 28° 159° (SSE) 4,203 10.7 -10.5°
Drops below altitude 10° 23:32:09 10° 107° (ESE) 5,563 11.5 -11.2°
Sets 23:37:11 0° 97° (E) 6,587 12.0 -11.5°
